EST,Max TemperatureF,Mean TemperatureF,Min TemperatureF,Max Dew PointF,MeanDew PointF,Min DewpointF,Max Humidity, Mean Humidity, Min Humidity, Max Sea Level PressureIn, Mean Sea Level PressureIn, Min Sea Level PressureIn, Max VisibilityMiles, Mean VisibilityMiles, Min VisibilityMiles, Max Wind SpeedMPH, Mean Wind SpeedMPH, Max Gust SpeedMPH,PrecipitationIn, CloudCover, Events, WindDirDegrees
2013-12-1,49,38,27,35,30,26,92,69,46,30.24,30.13,29.99,10,10,7,8,1,10,0.00,6,,203
2013-12-2,57,48,38,39,37,35,92,70,47,29.98,29.87,29.80,10,10,10,7,1,9,0.00,7,,203
2013-12-3,58,47,36,45,41,37,100,79,57,29.90,29.86,29.82,10,9,7,8,1,10,0.00,6,,227
2013-12-4,70,54,38,50,46,39,100,75,49,29.96,29.89,29.84,10,10,10,12,3,16,0.00,4,,168
2013-12-5,73,58,43,63,53,42,100,77,53,30.05,29.92,29.86,10,7,2,14,7,30,0.77,6,Rain,242
2013-12-6,43,39,34,41,37,33,100,96,92,30.28,30.13,30.06,7,3,2,14,5,18,2.08,8,Rain-Snow,344
2013-12-7,34,31,27,33,28,23,92,85,78,30.56,30.46,30.30,10,6,2,13,5,16,0.01,8,Rain-Snow,341
2013-12-8,38,32,26,38,31,23,100,92,84,30.52,30.25,30.04,10,5,2,13,4,16,0.59,8,Rain-Snow,48
2013-12-9,40,37,33,40,35,29,100,88,75,30.21,30.12,29.99,10,6,1,17,5,22,0.30,8,Rain,255
2013-12-10,34,31,27,29,24,16,100,75,49,30.35,30.18,30.05,10,8,2,17,7,23,0.07,6,Snow,269
2013-12-11,40,30,19,23,20,16,96,72,48,30.43,30.38,30.30,10,10,10,18,5,26,0.00,1,,254
2013-12-12,30,26,21,19,12,6,71,55,39,30.55,30.46,30.38,10,10,9,16,6,23,0.00,5,,293
2013-12-13,43,32,20,24,15,11,84,56,27,30.38,30.31,30.23,10,10,9,13,4,16,0.00,3,,212
2013-12-14,48,40,31,45,37,26,100,86,71,30.22,29.93,29.72,10,8,5,16,5,24,0.20,8,Rain-Snow,143
2013-12-15,43,37,30,38,30,24,100,85,69,30.12,29.96,29.77,10,8,2,21,11,28,0.04,8,Rain-Snow,273
2013-12-16,39,35,30,32,29,25,100,88,76,30.18,30.11,30.05,10,6,2,13,3,18,0.04,7,Snow,220
2013-12-17,46,38,30,39,34,25,100,85,70,30.16,30.02,29.94,10,8,4,22,6,29,0.06,8,Rain,260
2013-12-18,40,34,27,25,22,20,85,67,48,30.27,30.23,30.17,10,10,8,18,7,26,T,2,,243
2013-12-19,61,43,25,32,26,22,92,58,23,30.21,30.14,30.06,10,10,10,21,4,30,0.00,4,,231
2013-12-20,63,51,39,50,37,26,73,53,32,30.08,30.01,29.96,10,10,6,17,6,26,0.01,6,Rain,188
2013-12-21,75,67,59,61,54,50,93,71,49,29.94,29.83,29.67,10,10,10,23,10,32,0.06,7,Rain,184
2013-12-22,74,64,54,59,56,53,100,79,57,30.00,29.86,29.66,10,8,4,35,8,48,0.90,7,Rain,205
2013-12-23,55,44,33,54,38,23,100,85,69,30.34,30.19,29.98,10,6,4,18,6,31,0.17,8,Rain-Snow,306
2013-12-24,34,26,17,27,19,9,85,66,46,30.56,30.42,30.29,10,8,1,18,6,25,0.02,6,Snow,306
2013-12-25,38,26,14,24,15,10,96,66,35,30.53,30.40,30.25,10,10,10,9,2,12,0.00,2,,136
2013-12-26,43,35,27,25,22,17,85,62,38,30.40,30.32,30.22,10,10,9,20,6,29,T,4,Snow,250
2013-12-27,48,35,21,27,22,18,100,65,29,30.46,30.40,30.36,10,10,10,10,2,14,0.00,0,,224
2013-12-28,54,39,23,32,25,20,92,60,28,30.37,30.27,30.07,10,10,10,10,2,13,T,4,Rain,211
2013-12-29,43,40,37,42,40,34,100,93,85,30.04,29.87,29.76,10,6,1,17,7,25,0.85,8,Rain,241
2013-12-30,43,37,31,40,31,27,100,89,78,30.21,30.13,29.95,10,8,5,15,5,23,0.06,8,Rain-Snow,295
2013-12-31,35,30,24,27,22,18,88,70,51,30.37,30.29,30.16,10,10,10,23,8,31,0.00,4,,252